Simultaneous Nadir Overpasses (SNOs) Predictions

Prediction of SNOs between GOES-16 and METOP-B Satellite Orbit:

Table of predicted SNOs for the next 14.0 days since TLE Epoch: 2/26/2022
Index Date Time (GOES-16) GOES-16 Lat,Lon METOP-B Lat,Lon Distance(km) Time Diff (sec)
1 02/27/2022 02:29:56 -0.03, -75.19 -0.02, -75.23 3.81 80
2 03/01/2022 14:28:07 0.04, -75.23 -0.03, -74.79 49.87 80
3 03/03/2022 02:49:47 -0.05, -75.22 -0.96, -79.39 475.30 80
4 03/04/2022 02:26:27 -0.04, -75.23 0.17, -74.40 94.93 80
5 03/05/2022 14:47:59 0.05, -75.27 0.85, -78.96 420.05 80
6 03/06/2022 14:24:38 0.04, -75.29 -0.22, -73.96 150.58 80
7 03/08/2022 02:46:19 -0.04, -75.29 -0.76, -78.57 373.33 80
8 03/09/2022 02:22:59 -0.04, -75.30 0.37, -73.58 197.45 80
9 03/10/2022 14:44:30 0.04, -75.35 0.64, -78.14 316.93 80
10 03/11/2022 14:21:11 0.04, -75.37 -0.49, -73.15 254.12 80
